GFSSGP_925_spd_120.txt.gz
Wind_Speed
3 2 4 4 4 5 2 2 1 2 3 5 2 5 9 4 3 3 3 11 11 11 12 9 3 1 1 0 1 1 1 2 3 3 1 2 0 1 0 1 2 2 3 4 4 5 6 5 7
3 5 3 2 5 3 3 3 3 1 5 6 6 3 6 3 2 2 1 11 12 11 12 12 4 2 1 1 1 1 1 2 3 4 3 3 3 2 2 2 3 4 5 6 6 7 7 6 5
5 2 3 4 4 5 4 3 4 2 4 1 4 5 3 2 1 2 5 10 10 10 11 12 7 4 3 2 1 1 2 3 4 4 4 4 5 5 4 5 6 7 8 8 8 7 8 6 4
3 4 4 4 4 1 4 4 1 3 4 6 4 6 3 1 1 3 5 8 11 12 12 12 9 8 5 3 5 5 4 4 5 6 6 6 6 6 6 7 7 7 8 8 7 9 10 8 7
4 3 4 4 2 1 0 1 1 3 3 4 2 3 3 3 6 6 7 9 12 12 13 14 12 11 8 5 3 5 6 7 8 8 8 7 8 7 8 8 9 8 8 8 7 8 11 10 9
3 3 4 5 3 1 1 2 2 3 2 2 5 4 2 2 4 6 7 9 11 12 12 12 13 12 10 8 7 6 6 8 9 10 11 10 11 11 11 10 10 10 10 10 10 11 13 14 11
5 4 4 6 6 3 2 1 3 4 2 4 4 4 1 2 4 4 7 8 10 11 11 11 12 12 12 11 10 9 9 9 10 10 11 12 13 13 13 13 13 13 13 12 13 13 15 16 15
4 4 4 1 6 5 1 2 2 3 2 1 1 4 4 3 3 2 4 9 11 12 13 13 13 13 12 11 11 10 10 10 10 11 11 12 14 15 16 16 16 16 16 15 15 15 16 18 17
3 4 3 7 7 5 2 3 2 0 5 3 4 3 5 5 2 3 6 10 11 14 16 16 15 15 14 12 12 12 12 11 11 11 11 13 15 16 17 18 18 18 18 19 18 18 18 18 19
4 4 7 2 4 5 4 3 2 3 3 4 4 4 5 5 7 10 10 12 14 15 16 17 16 16 15 14 14 14 14 14 13 13 14 15 14 15 17 18 19 20 20 21 22 22 21 20 21
2 3 5 1 2 4 4 3 1 7 1 3 5 3 3 7 8 10 11 11 11 12 15 18 17 16 16 16 16 15 15 15 14 15 16 15 16 16 16 17 17 18 20 22 24 24 24 24 23
7 4 2 4 1 4 4 3 3 1 2 5 4 4 4 6 8 9 9 9 10 12 15 16 17 17 17 17 17 16 16 17 17 16 16 17 17 18 19 20 20 20 20 21 22 24 26 26 25
5 3 5 5 7 5 5 4 1 3 5 2 3 6 7 8 9 8 7 8 11 15 17 18 17 17 18 19 19 18 17 16 17 18 17 17 19 20 20 20 22 23 23 23 25 25 26 29 28
3 6 4 6 5 4 3 1 3 1 2 5 4 6 6 7 5 5 8 10 13 15 18 18 15 16 18 19 19 19 18 17 16 17 17 17 18 20 21 22 23 23 24 25 25 27 28 27 26
4 6 5 7 5 3 2 2 4 2 3 7 6 6 6 5 7 8 6 8 12 14 16 18 17 16 19 18 19 18 17 18 17 17 16 15 16 19 19 20 22 23 25 24 25 24 26 26 24
5 5 4 4 4 3 1 5 1 4 6 6 6 5 5 3 5 5 5 7 10 13 15 16 17 16 18 18 19 17 17 19 18 18 16 14 13 16 18 18 19 20 22 21 22 21 22 24 23
7 4 3 1 3 3 2 3 2 2 4 6 5 6 6 4 3 2 5 9 11 12 13 14 14 17 17 18 19 19 17 18 18 19 17 15 14 14 15 14 15 17 19 19 18 19 16 18 19
5 6 3 3 2 3 3 7 6 5 4 9 8 6 7 7 5 1 5 8 11 12 13 13 14 15 15 14 15 15 14 15 15 16 19 16 15 14 15 15 14 15 14 15 11 11 17 17 17
7 6 5 0 1 1 4 7 11 9 6 10 9 7 8 7 6 2 3 6 8 9 12 13 14 14 15 14 13 12 14 13 13 15 16 16 15 17 16 14 16 12 8 8 9 5 7 8 14
6 6 3 2 1 1 5 12 12 6 6 7 10 9 9 6 5 5 1 3 6 8 10 12 11 12 12 9 8 4 8 8 9 11 15 17 17 17 16 16 13 16 17 16 12 13 7 5 13
5 5 3 3 3 2 7 8 4 3 3 2 3 4 6 8 7 5 3 2 4 6 9 10 10 11 11 9 8 7 5 8 13 14 15 17 17 19 19 19 17 14 12 14 15 14 12 7 7
3 2 3 4 4 2 4 4 6 3 6 3 3 5 7 7 5 4 5 4 3 5 6 6 8 10 12 11 12 11 10 10 11 13 15 18 17 16 17 18 19 19 18 17 13 12 13 8 9
3 3 4 3 4 3 1 3 7 3 6 7 8 8 7 7 6 7 7 5 1 3 3 5 6 8 11 12 11 12 13 13 12 13 13 15 15 17 17 16 15 15 14 13 15 15 14 12 8
4 5 6 4 3 2 1 3 6 4 5 1 3 8 8 7 7 7 6 5 4 1 1 3 5 6 7 7 9 9 10 10 9 10 12 12 14 16 16 15 14 13 13 14 12 11 10 10 8
6 5 3 4 3 5 2 1 10 6 5 3 3 7 8 7 7 6 7 9 6 5 3 2 1 1 3 5 6 7 7 6 7 8 9 10 12 15 15 14 14 14 13 12 11 12 13 14 14
3 4 4 5 2 4 2 6 6 3 1 1 1 3 6 7 6 7 10 10 10 10 8 5 3 2 1 1 1 2 2 2 5 6 7 9 10 11 12 12 11 11 10 10 9 10 11 11 11
2 1 3 5 2 2 3 7 9 4 6 4 6 5 8 8 7 7 11 12 13 11 10 8 5 4 4 4 3 2 1 0 1 3 5 7 8 9 10 11 11 10 10 8 7 8 9 8 8
2 5 3 2 1 4 5 6 5 3 3 6 8 9 8 7 7 7 10 14 15 14 12 11 9 9 8 8 7 5 5 4 3 3 4 6 8 10 11 11 10 9 9 9 6 8 9 9 10
2 1 3 3 3 3 3 6 6 5 4 6 7 7 7 8 7 7 12 18 18 17 16 16 12 11 12 10 9 9 9 7 6 4 4 5 7 9 10 10 11 11 11 11 8 9 10 10 10
4 5 5 3 3 1 2 7 2 5 4 4 7 6 5 6 7 6 13 17 19 20 19 19 16 16 13 13 13 12 11 9 7 5 4 4 6 7 7 8 8 8 9 8 6 7 7 7 8

GFSSGP_925_spd_123.txt.gz
Wind_Speed
5 4 6 4 3 3 2 3 1 3 1 1 2 2 8 5 2 5 2 12 11 11 13 12 2 2 2 2 2 2 2 1 2 2 1 1 1 2 1 1 1 1 2 3 4 5 5 4 6
5 8 4 3 3 2 2 1 4 2 7 7 6 3 5 4 2 3 3 10 11 11 12 13 7 4 3 2 2 2 1 1 2 3 1 2 2 1 1 2 2 3 4 5 5 6 8 6 6
7 3 3 4 3 4 4 3 5 2 7 2 4 5 3 3 2 2 5 8 10 12 12 11 9 7 5 5 4 3 3 3 3 3 3 4 4 4 5 4 5 6 6 7 6 5 10 7 5
3 3 3 3 3 1 2 6 5 6 3 3 5 8 3 2 1 3 5 8 10 13 14 12 10 9 8 5 2 2 2 4 5 5 6 6 6 6 6 7 7 7 7 7 6 5 10 9 6
4 2 4 3 2 1 1 1 2 3 3 3 1 5 3 2 7 6 7 9 11 12 11 11 11 10 9 7 6 4 3 4 5 7 8 8 9 8 8 8 8 9 8 7 7 6 10 12 10
3 2 3 4 3 1 0 0 3 3 2 3 5 5 3 3 4 7 8 10 11 11 11 11 10 10 10 7 6 6 6 6 6 8 9 9 11 11 11 11 11 10 11 10 9 9 10 12 13
4 3 4 5 7 3 3 1 5 4 4 3 5 4 3 3 5 6 9 10 10 11 11 12 12 12 10 10 10 10 7 6 7 7 8 8 10 11 11 12 13 13 13 13 13 12 13 15 15
4 4 4 2 7 5 4 2 2 2 3 3 1 5 5 4 5 5 9 9 11 12 13 14 13 12 12 10 10 9 9 9 7 7 8 10 11 11 12 14 14 15 15 15 15 16 15 16 17
2 4 3 7 7 5 4 4 1 1 5 3 2 3 5 8 5 7 7 9 11 13 15 15 15 14 13 12 11 10 10 10 10 10 9 9 10 11 12 13 14 15 16 17 18 18 18 18 18
4 3 7 3 3 5 6 3 5 4 3 3 3 5 8 8 9 10 9 9 11 14 15 16 15 15 15 13 13 13 12 11 12 12 12 12 12 12 12 13 14 15 17 18 19 21 21 20 17
2 2 4 2 2 3 6 3 1 8 1 4 6 6 5 7 9 9 8 7 8 10 13 15 15 15 15 15 15 15 14 13 12 12 13 13 14 14 14 14 14 15 16 17 18 20 20 21 20
6 4 2 2 3 3 3 5 3 1 2 5 6 6 5 7 7 7 7 6 8 11 14 15 14 15 15 15 15 15 15 15 13 13 13 13 14 16 16 14 15 17 17 18 20 21 21 21 21
5 3 5 4 7 6 4 3 2 2 4 5 7 7 7 9 8 7 5 5 7 10 14 15 14 14 15 15 15 14 14 14 14 13 13 12 13 14 16 17 17 19 20 20 21 22 23 23 22
4 6 4 6 5 5 3 1 0 2 4 4 6 5 5 8 7 5 3 5 9 12 14 15 15 15 16 14 15 14 13 14 13 12 13 12 12 13 15 16 16 16 17 19 21 21 22 22 22
4 6 4 7 4 3 1 1 3 1 3 6 7 7 6 6 6 4 3 6 9 11 13 15 14 15 14 14 14 13 13 13 14 16 13 12 11 11 13 14 14 14 16 16 17 18 21 21 21
5 5 4 3 4 2 0 4 1 1 5 6 6 6 7 5 5 3 3 5 7 10 13 13 13 14 13 13 13 13 13 13 14 16 14 14 13 13 12 12 12 14 15 15 16 17 17 19 18
6 4 3 1 2 1 2 3 1 1 4 5 6 6 6 5 5 3 1 3 6 9 11 12 12 13 13 11 11 12 10 12 12 14 17 15 14 14 13 13 13 13 13 14 16 17 16 13 14
6 6 3 3 2 2 1 7 5 4 5 8 7 6 8 8 8 7 3 2 5 7 9 10 11 12 12 10 7 10 10 9 10 13 14 15 14 13 13 11 12 11 11 11 10 12 12 7 10
8 6 5 2 3 3 3 5 10 8 5 9 9 10 9 10 7 8 4 2 5 7 10 12 12 11 12 12 9 6 6 8 9 10 12 13 14 13 13 11 12 12 12 11 12 7 7 9 11
7 7 3 2 3 3 5 12 12 6 6 8 11 11 11 6 8 8 6 2 5 7 9 9 9 9 10 8 6 2 5 5 8 8 10 13 13 14 14 13 12 11 11 13 15 16 6 4 10
5 6 3 3 3 2 6 7 5 1 3 3 5 5 6 12 12 8 7 4 3 4 6 6 6 7 8 6 5 2 3 4 8 10 11 12 12 12 13 14 15 15 15 13 12 13 13 8 7
4 2 4 3 3 2 4 4 5 3 5 4 5 5 6 9 8 7 8 6 4 3 3 2 2 5 7 7 7 8 7 4 7 8 10 12 14 14 14 15 15 15 15 17 17 15 12 9 9
4 3 4 3 3 2 3 2 7 3 5 7 8 7 6 8 9 8 9 7 6 4 3 2 1 2 4 5 5 7 8 7 6 6 7 10 11 12 13 13 14 15 15 14 14 14 15 14 10
6 5 5 3 2 2 1 2 5 3 3 3 1 6 7 8 8 8 9 8 7 7 5 4 2 1 1 2 4 4 5 4 4 5 6 7 9 10 11 12 12 12 12 13 11 11 11 10 8
5 4 3 4 3 4 1 1 9 4 4 2 2 4 7 8 8 7 9 9 10 10 9 8 7 5 3 2 1 2 2 2 3 4 4 6 8 10 12 12 12 12 11 10 10 11 11 10 7
3 3 4 5 2 3 2 5 4 2 2 2 3 3 2 6 6 8 11 12 13 14 13 11 8 8 7 6 5 3 2 1 1 2 3 5 7 7 8 9 9 9 9 9 9 10 10 10 8
1 3 2 6 2 1 2 7 7 4 6 4 5 3 5 7 9 10 11 14 16 17 17 15 11 10 11 10 9 7 5 4 3 3 3 4 5 6 7 8 8 8 9 8 8 8 9 10 10
1 6 3 3 2 3 4 5 4 5 4 5 6 8 7 6 6 7 11 17 19 19 18 18 17 17 15 13 12 10 8 7 6 5 5 5 5 6 7 8 8 8 9 9 7 7 8 8 9
2 1 4 3 2 2 2 5 5 5 3 3 5 6 6 6 8 9 13 21 23 23 23 23 23 20 18 17 16 14 11 9 8 8 7 6 6 7 7 7 7 7 7 8 6 6 7 9 10
2 4 4 3 3 1 1 6 2 5 4 3 7 6 5 5 8 8 14 19 23 26 27 28 27 25 22 19 17 15 12 12 12 10 9 8 8 8 8 8 8 9 9 9 8 8 8 9 9

GFSSGP_925_spd_126.txt.gz
Wind_Speed
4 3 5 4 5 4 5 6 1 8 8 3 3 1 6 11 3 3 6 8 8 8 12 13 5 4 2 3 2 1 2 3 3 3 2 1 1 0 1 1 2 2 4 3 4 4 3 4 5
4 5 3 2 4 7 6 6 9 5 8 11 9 6 5 5 6 7 5 9 9 10 11 13 7 5 4 3 3 1 0 1 2 3 3 4 4 4 3 3 3 4 4 5 5 6 9 6 8
6 3 3 4 3 6 5 9 11 12 9 4 5 6 3 5 6 5 5 6 7 10 11 11 9 7 7 6 4 3 2 2 3 4 5 5 6 5 6 6 6 6 7 7 7 6 9 10 8
6 4 2 5 7 3 4 11 11 11 4 2 8 8 5 4 3 5 6 6 7 9 11 10 9 7 7 6 4 2 2 2 3 4 5 6 8 8 7 8 8 8 8 8 8 7 10 12 9
2 3 4 4 5 5 6 9 11 9 5 8 2 6 6 6 9 8 7 8 9 9 10 11 10 8 7 5 4 3 2 3 5 6 7 7 7 8 8 9 9 9 10 9 8 7 8 12 12
4 3 7 9 7 6 7 6 8 7 6 6 6 9 6 8 7 7 8 9 10 10 11 10 10 10 9 8 6 4 3 4 4 5 7 8 9 9 10 10 11 10 10 11 10 9 10 12 14
3 4 6 9 11 8 6 6 9 8 10 6 7 5 7 10 7 7 8 9 10 10 10 11 11 10 9 9 8 8 7 6 5 5 6 7 9 10 10 10 11 11 12 12 12 12 12 13 15
1 1 7 7 14 7 9 6 5 6 6 6 1 4 7 12 8 9 8 8 9 10 11 11 10 10 10 9 10 10 9 9 8 8 7 8 7 10 10 11 11 13 13 14 14 14 15 15 16
1 4 7 8 14 10 11 7 3 2 8 3 2 4 9 12 9 7 5 6 6 9 11 11 12 12 11 10 11 10 10 10 10 10 10 9 8 8 8 9 12 13 14 15 16 16 16 17 17
2 3 5 3 6 12 14 10 10 7 9 5 8 11 11 10 8 6 4 4 6 8 10 11 11 12 12 10 11 10 10 9 9 10 10 9 9 9 11 12 12 12 13 14 15 16 17 17 16
2 2 6 3 3 13 11 8 3 9 7 6 11 13 11 10 8 6 5 4 5 6 8 11 11 11 12 11 11 9 9 9 9 9 10 10 10 10 10 10 11 11 12 11 12 14 14 15 16
5 5 2 5 4 7 10 8 6 3 4 4 11 12 10 9 8 6 4 3 4 6 9 10 10 10 11 10 10 10 9 10 9 10 10 10 9 10 10 11 12 12 12 12 13 14 16 17 18
7 6 6 6 8 7 7 5 3 5 6 9 10 9 9 8 8 7 4 2 4 6 9 10 11 10 12 10 10 9 9 9 10 9 10 10 9 10 10 11 11 12 13 14 15 14 15 17 19
7 12 10 6 6 4 6 4 4 5 8 8 8 8 8 9 8 6 4 1 3 5 8 10 10 11 11 9 9 8 7 8 8 8 9 10 9 9 10 11 11 12 12 14 15 16 17 18 18
14 12 9 7 3 3 1 4 5 7 9 9 8 7 7 8 8 6 4 1 3 5 7 10 10 11 10 8 8 7 6 6 7 9 9 10 9 8 9 8 9 11 13 14 14 14 15 16 16
6 6 7 2 2 1 3 9 6 6 10 12 10 8 8 8 8 6 4 1 2 5 7 8 9 9 9 7 6 5 5 5 6 8 8 9 9 10 9 8 10 11 11 13 13 14 16 16 17
1 7 7 5 3 2 4 3 6 6 8 10 12 11 10 10 9 8 5 1 2 4 6 7 9 9 9 7 5 4 4 4 5 7 8 10 9 10 8 8 9 10 10 10 11 12 12 12 15
10 7 5 6 2 1 3 7 4 5 10 12 12 12 13 12 12 11 7 3 2 2 4 6 7 7 8 6 4 2 3 5 6 8 9 9 9 10 9 8 10 11 10 10 11 10 10 6 9
9 12 10 4 3 2 4 10 10 8 9 13 14 13 13 13 11 11 9 6 3 1 3 5 6 6 6 5 3 2 4 6 5 6 9 9 10 11 11 10 10 11 9 10 12 12 10 8 14
9 14 5 5 2 2 3 13 13 12 15 16 15 16 15 13 11 14 12 8 4 2 3 4 5 6 6 4 3 1 2 3 4 5 7 9 9 10 10 11 11 11 9 10 11 12 10 7 12
10 6 5 4 3 3 7 7 7 4 8 10 12 12 12 15 15 13 13 10 5 3 2 3 3 3 3 3 3 1 1 1 1 4 6 10 10 11 11 11 9 9 9 11 12 13 12 9 9
5 4 6 6 3 1 5 3 4 4 7 8 9 10 10 9 10 12 13 10 7 5 3 2 2 2 2 2 2 2 1 1 2 3 5 7 9 10 10 10 10 10 9 11 11 12 12 11 10
6 5 6 4 4 1 2 2 3 1 5 5 9 8 6 6 9 11 12 10 8 6 4 4 4 3 2 1 1 1 2 2 1 2 3 5 7 8 9 9 9 9 9 9 10 10 10 9 8
12 7 5 4 1 2 2 2 6 2 1 2 1 7 5 6 8 9 9 8 8 7 7 6 6 5 3 2 1 1 1 1 1 1 2 4 5 6 8 9 9 9 9 10 9 9 10 10 9
1 3 2 1 1 2 2 3 8 1 2 3 3 1 5 7 8 9 11 11 11 11 11 10 10 10 8 7 5 4 3 2 1 0 1 3 4 5 7 8 9 8 8 8 8 8 7 8 7
2 1 1 3 3 1 1 6 1 1 2 4 5 3 3 7 8 9 12 15 15 14 14 14 13 12 11 8 7 5 5 4 2 1 1 2 3 5 7 7 7 7 7 7 7 6 6 7 7
3 1 2 4 2 2 1 5 6 3 9 8 4 4 4 4 8 12 15 15 14 15 17 16 15 13 12 12 9 8 7 5 5 3 3 3 4 5 6 6 6 6 6 6 6 5 6 6 7
2 7 2 1 2 3 3 4 3 5 6 2 5 6 5 7 8 9 13 15 16 16 17 17 17 16 14 13 11 9 9 8 6 5 5 5 6 6 6 7 7 7 7 7 6 6 6 7 7
3 3 2 1 2 1 3 2 1 1 3 3 3 4 5 6 7 9 13 15 16 16 18 19 19 20 17 15 13 13 12 11 11 10 8 6 7 6 6 6 6 6 6 7 7 6 7 7 7
1 3 5 3 4 1 2 2 2 2 2 3 6 7 7 8 8 8 12 13 15 18 20 22 22 22 20 16 15 16 14 13 12 11 10 9 8 8 8 7 7 6 6 6 7 7 8 8 7

GFSSGP_925_spd_129.txt.gz
Wind_Speed
3 3 5 6 5 6 10 6 5 8 8 3 10 7 12 14 9 3 7 7 7 8 10 13 8 5 4 4 3 2 1 1 1 3 2 1 2 2 2 2 3 3 3 3 4 4 3 4 5
5 6 6 4 6 10 8 8 10 10 8 10 10 5 4 7 13 11 7 7 8 9 11 14 10 9 7 5 3 3 2 1 2 3 4 5 3 4 4 4 4 4 5 6 7 7 8 8 7
6 6 4 4 6 11 8 11 12 12 10 8 5 9 5 5 6 6 6 6 7 10 11 11 9 8 8 8 6 4 2 1 2 3 4 5 6 6 7 6 6 7 7 8 8 9 8 10 9
9 6 4 6 12 4 6 12 16 14 7 3 9 9 7 7 5 7 7 6 8 9 10 10 8 7 5 4 4 4 4 3 3 5 6 6 6 7 7 8 8 8 9 9 9 9 9 11 11
6 5 7 8 9 5 6 12 15 13 10 9 4 7 7 8 11 9 8 8 8 9 10 10 10 9 8 5 4 3 3 3 4 5 6 7 8 8 8 9 9 9 9 9 9 9 8 9 12
5 5 9 12 9 7 9 10 13 10 10 8 7 10 7 12 9 8 8 9 10 10 10 9 12 11 10 9 7 6 5 5 6 6 7 8 9 9 10 10 11 10 10 10 10 10 10 10 12
9 8 12 14 13 10 10 10 11 11 10 8 8 6 8 12 8 8 8 8 9 10 9 9 10 10 12 15 10 9 9 8 8 8 7 7 9 10 11 12 12 12 12 11 12 12 12 13 13
4 5 4 12 14 8 11 11 7 10 10 7 3 4 8 15 11 9 7 7 7 9 9 10 10 10 10 8 14 11 11 10 10 11 11 10 9 9 10 10 10 10 13 14 14 14 15 15 16
2 5 10 10 14 11 14 9 5 3 10 3 3 9 15 17 12 9 6 5 5 7 9 9 10 11 11 9 11 11 13 12 12 12 13 11 9 10 10 12 13 13 13 13 14 16 17 17 18
6 7 11 3 6 11 16 12 11 9 11 7 10 10 13 14 12 8 5 4 4 5 7 9 10 11 12 10 11 10 10 9 9 9 10 10 10 11 13 13 14 16 15 15 14 13 13 16 16
4 9 6 2 3 9 13 11 7 10 10 10 12 13 13 12 9 7 5 4 4 4 6 8 9 10 10 10 10 9 9 9 9 9 10 10 10 9 10 11 12 13 14 13 12 13 14 13 14
5 2 2 5 1 10 11 10 7 9 5 5 13 14 12 10 9 7 5 3 3 4 6 7 8 9 10 9 8 9 8 9 9 9 10 10 9 9 10 10 11 13 13 15 15 16 16 17 16
5 6 4 7 7 7 6 6 5 7 5 8 12 12 11 9 8 6 5 4 2 4 6 7 8 8 9 9 8 8 8 8 8 8 9 10 10 10 10 11 11 12 13 14 15 16 17 19 19
7 10 9 6 7 5 7 4 3 7 8 9 10 10 9 9 9 7 5 3 1 3 5 6 8 8 8 8 8 8 7 7 7 8 10 10 10 10 10 10 11 11 12 13 15 16 17 18 17
15 11 9 5 4 3 3 4 6 11 10 10 10 9 8 9 9 8 5 3 0 1 4 6 7 7 8 7 7 6 6 6 6 8 9 10 10 9 8 8 9 11 12 13 13 14 15 16 17
7 8 8 4 3 2 4 10 9 9 11 11 11 10 9 10 10 8 7 4 2 2 4 5 7 8 8 7 6 5 5 6 7 7 8 9 8 8 8 8 10 12 11 11 12 13 13 15 14
11 8 11 6 1 3 8 5 10 9 10 12 12 11 10 10 11 10 8 5 2 2 4 5 7 7 7 6 5 4 4 6 6 6 7 8 8 9 8 8 10 11 11 11 12 13 14 15 14
13 11 8 7 6 4 9 5 6 8 10 11 11 12 11 11 11 12 10 7 4 2 3 4 6 6 6 5 4 2 2 4 5 5 7 9 9 10 9 9 10 11 10 12 15 16 15 16 15
13 12 11 7 2 4 9 9 8 9 10 12 13 12 12 12 12 12 11 9 6 5 3 4 5 5 5 4 4 2 2 3 4 5 7 8 9 10 10 10 10 12 12 13 14 14 14 13 18
13 13 10 4 2 4 4 11 12 13 14 14 13 14 13 11 10 12 13 11 9 6 5 4 4 4 3 3 3 1 1 2 2 4 6 9 9 10 10 10 10 12 13 13 14 14 13 10 14
7 13 11 5 5 1 5 10 12 11 14 13 14 13 12 12 12 12 15 13 11 9 6 4 3 3 3 3 2 1 1 1 1 4 5 8 8 9 10 11 11 12 12 12 13 14 14 12 11
7 5 7 9 7 2 1 3 6 10 9 10 11 11 11 11 10 10 14 14 12 9 6 4 4 3 2 3 2 1 1 1 1 2 3 4 7 8 10 11 12 12 10 11 11 11 11 11 11
6 5 6 4 3 2 3 1 3 4 7 7 6 8 7 5 7 10 12 13 11 9 8 6 5 4 2 2 1 2 1 1 0 0 2 3 5 8 10 11 10 9 8 8 9 10 11 9 9
12 10 7 3 1 2 3 3 5 3 3 3 2 4 5 5 6 7 9 11 11 10 8 6 6 6 4 3 2 1 1 1 1 1 2 4 5 6 7 7 7 7 8 9 9 9 8 9 7
3 6 2 1 0 1 2 3 7 4 2 3 4 3 3 4 5 7 9 12 11 9 9 9 9 9 7 6 4 3 3 3 2 2 2 3 3 3 4 6 6 6 8 8 8 7 7 7 6
3 1 0 3 5 3 2 5 1 4 2 2 1 1 0 4 6 8 10 10 11 12 12 12 12 11 10 9 8 7 6 5 5 6 5 5 4 3 4 5 5 6 6 6 6 5 5 5 5
4 3 1 1 2 1 3 4 2 0 3 4 2 1 2 3 4 7 10 12 13 13 13 14 14 14 13 13 11 10 10 10 9 9 8 7 6 4 4 4 5 5 5 5 6 5 5 5 5
3 4 2 1 2 3 5 3 1 3 4 3 2 3 3 3 4 6 9 12 13 15 15 16 17 17 16 15 15 14 13 13 12 11 10 9 7 7 6 5 5 5 6 6 6 6 6 6 6
3 3 1 2 2 2 2 5 4 4 4 5 5 4 5 5 5 6 9 12 14 14 15 17 19 20 20 18 17 16 16 16 15 14 13 12 10 9 8 7 7 7 7 7 8 8 8 8 8
6 5 7 3 4 2 3 2 3 4 5 4 6 8 8 7 9 9 12 13 14 16 17 20 21 22 22 20 19 19 18 17 17 17 16 14 13 11 10 9 9 9 9 8 9 9 9 9 9

GFSSGP_925_spd_135.txt.gz
Wind_Speed
5 6 4 1 4 4 3 5 3 4 5 6 10 14 12 7 4 6 9 8 12 8 10 12 10 10 9 8 7 5 5 4 3 3 3 3 4 4 4 4 4 5 5 5 5 4 4 4 4
7 3 3 2 5 3 5 4 7 4 7 8 9 5 8 6 4 8 6 17 12 10 12 11 10 9 9 9 8 7 5 4 3 3 2 3 3 4 4 4 4 5 5 6 6 6 6 5 6
4 1 3 4 4 5 4 3 9 6 6 4 6 9 5 4 4 4 12 15 12 11 11 11 9 9 8 7 7 5 4 4 3 4 4 4 4 5 5 5 5 6 7 7 7 6 6 7 6
2 3 3 3 6 6 4 7 10 5 6 9 8 8 5 7 4 9 20 18 13 12 12 11 10 9 8 6 5 4 4 3 3 2 3 4 5 6 6 6 7 7 7 8 8 7 7 7 5
4 2 2 3 3 1 4 7 5 7 5 4 4 4 5 8 20 17 19 15 14 12 11 12 10 10 9 8 6 5 4 4 4 6 6 6 6 6 7 8 8 8 9 9 9 9 8 8 7
1 3 3 4 4 4 3 8 7 6 6 4 7 6 4 14 17 12 12 13 14 12 11 10 10 10 10 10 9 7 6 6 7 7 7 7 8 8 7 8 8 8 9 9 10 11 11 10 10
2 4 5 6 7 4 5 7 7 7 6 4 10 5 4 10 16 13 13 12 11 9 9 8 7 7 8 9 10 9 9 8 8 7 8 8 8 9 7 8 10 9 9 10 11 12 13 14 13
3 3 3 3 7 5 5 4 6 9 2 4 5 7 6 10 17 16 13 12 10 10 9 9 8 8 8 6 7 8 10 9 8 8 8 8 6 7 5 6 7 12 12 13 14 15 14 13 14
2 3 2 2 8 6 5 6 3 4 8 5 5 4 12 28 20 17 14 13 12 10 9 9 9 8 7 6 6 7 8 7 7 8 10 8 6 7 8 8 9 11 11 11 9 13 13 13 14
3 3 1 2 2 7 6 8 6 6 5 5 8 12 25 26 20 16 13 12 9 7 8 8 8 8 8 7 6 6 8 10 7 8 8 9 7 8 8 8 8 11 11 9 10 14 12 13 14
3 1 6 6 6 8 6 5 4 11 2 7 12 10 13 20 16 13 12 11 8 5 5 7 7 8 9 7 7 5 8 9 6 7 8 8 6 8 7 7 8 9 10 11 12 12 11 11 11
5 5 4 7 8 5 6 6 6 4 2 9 14 15 11 9 12 16 14 11 7 4 4 5 6 8 9 7 9 6 6 9 9 11 13 10 8 8 7 8 9 9 10 10 12 13 13 13 14
4 1 4 5 8 8 10 7 6 4 6 13 15 13 10 11 13 15 15 11 8 4 3 3 5 8 8 7 9 8 7 7 9 12 17 7 9 11 11 9 10 12 11 13 12 12 12 12 13
5 6 3 7 6 7 7 4 4 2 5 11 11 10 9 12 17 17 14 12 9 6 2 2 4 7 8 6 6 6 5 6 7 10 15 12 12 12 12 11 12 10 13 14 12 13 12 12 13
8 6 6 7 5 4 2 4 2 6 6 9 9 7 8 11 16 14 12 13 10 5 2 2 4 6 7 5 5 5 3 7 12 8 10 12 12 11 10 9 12 11 13 13 10 13 12 12 13
5 5 5 3 4 3 4 3 4 7 9 8 7 7 7 6 14 13 16 13 8 5 3 2 3 4 6 5 3 3 5 7 10 9 6 7 7 9 12 9 13 11 12 12 11 12 12 12 13
1 5 5 2 1 2 1 1 4 6 7 7 7 7 7 7 9 16 13 10 8 7 5 3 3 4 6 5 4 2 0 5 5 8 6 5 6 7 9 10 10 10 10 12 12 10 11 13 16
4 6 5 6 5 3 3 1 6 8 7 9 8 8 8 8 10 17 16 14 11 9 5 3 2 4 5 3 3 4 1 3 5 5 6 5 6 5 4 6 8 8 10 12 13 11 10 16 18
7 6 8 3 2 3 5 4 8 8 6 8 8 9 9 11 17 22 20 18 14 9 6 4 4 4 4 2 1 2 3 3 3 2 5 5 5 5 4 5 7 7 10 12 13 11 12 17 20
3 10 4 3 3 2 6 8 7 9 7 9 10 9 9 6 7 16 23 21 17 11 9 7 5 5 4 2 1 1 3 1 1 1 3 4 5 5 5 6 7 7 8 8 10 12 11 10 17
3 8 6 6 4 1 2 6 5 7 7 7 7 6 6 10 10 9 19 23 17 14 12 8 7 6 5 4 3 3 1 4 6 3 2 2 3 4 4 5 6 6 6 8 10 11 12 11 10
5 2 7 11 4 4 3 3 5 5 5 6 8 7 5 6 6 6 13 18 19 16 12 11 8 7 6 5 6 6 6 6 8 5 3 1 1 2 3 4 4 5 5 6 7 8 10 9 12
4 5 7 4 3 5 2 4 7 2 2 2 4 7 6 3 7 7 15 21 17 14 14 11 8 7 8 8 8 8 7 7 8 7 6 4 3 4 4 4 3 3 4 5 6 7 8 7 7
6 7 8 5 4 3 2 5 5 1 4 2 3 6 6 6 5 6 6 13 14 13 13 11 10 11 11 10 10 11 10 10 10 10 9 7 6 6 5 5 4 4 4 4 4 4 4 5 5
7 6 3 4 3 5 4 2 6 1 2 5 7 5 5 5 4 3 6 8 10 13 13 13 13 13 13 13 13 13 13 13 13 12 11 10 9 10 9 7 6 5 5 4 4 3 3 3 3
3 5 5 6 4 4 4 5 4 4 4 6 7 6 5 4 3 5 7 10 12 14 16 17 17 16 15 16 16 15 15 16 16 14 14 14 13 11 10 9 8 7 7 6 5 4 4 4 4
2 1 3 6 4 4 3 3 4 2 4 5 5 4 4 4 4 6 8 12 15 17 18 19 19 18 17 18 19 19 19 19 18 16 16 16 15 14 13 12 11 10 9 8 7 6 6 6 6
2 3 3 3 3 2 4 3 4 1 4 5 5 4 3 2 3 4 7 11 14 17 18 17 19 20 19 20 21 23 22 21 20 19 21 20 18 17 17 15 14 12 11 10 9 8 7 8 8
2 1 2 4 4 4 3 5 4 6 6 7 5 3 2 3 3 4 7 11 16 17 17 18 18 19 21 21 22 24 25 24 23 23 23 23 21 20 20 19 17 16 15 13 12 11 10 10 10
1 2 4 4 3 1 3 4 2 8 8 6 4 4 4 4 4 3 7 12 14 11 18 20 20 20 20 20 22 24 24 25 27 27 27 25 25 24 24 23 22 20 18 17 16 15 14 14 14

GFSSGP_925_spd_138.txt.gz
Wind_Speed
6 3 1 3 4 4 3 6 1 4 4 6 4 8 12 5 3 4 9 14 13 12 10 10 9 9 8 7 6 5 4 3 3 3 2 2 3 3 4 4 4 4 4 4 4 3 2 3 4
5 2 2 2 4 3 5 4 4 3 8 9 7 5 7 4 2 7 11 12 11 10 9 9 8 9 8 8 7 6 5 3 2 2 3 3 3 4 4 5 5 5 5 6 6 5 6 5 5
4 1 3 5 4 6 5 4 6 5 6 3 6 7 5 4 1 4 18 15 11 11 9 9 7 7 7 6 5 4 3 3 2 2 2 3 4 4 5 6 6 7 7 7 7 7 7 6 7
3 3 3 4 5 5 5 7 6 8 5 7 6 9 5 6 2 13 18 15 13 13 10 9 7 6 5 5 4 3 2 2 2 2 3 3 4 5 6 6 7 7 8 8 9 9 8 8 7
2 3 2 2 5 4 2 7 4 5 5 5 1 5 4 7 24 23 18 14 14 13 11 8 7 6 6 5 4 3 3 3 3 4 5 6 6 6 6 6 8 8 9 9 10 9 10 10 10
3 3 3 4 4 1 2 4 6 4 4 5 7 6 3 15 22 19 17 14 13 12 8 7 6 5 5 7 6 4 4 4 4 4 5 5 6 7 6 6 7 8 9 10 10 10 10 10 12
5 4 5 5 7 4 5 3 7 7 5 4 8 6 3 7 17 16 15 13 11 8 6 5 5 4 4 6 6 6 7 7 6 6 5 7 6 6 4 5 6 7 9 10 10 12 13 12 12
4 4 4 5 6 5 5 3 2 8 5 4 2 7 6 11 20 18 15 13 10 8 6 5 5 4 4 5 4 5 6 7 6 6 7 8 6 5 4 4 6 10 10 10 10 9 11 11 12
3 4 3 6 7 6 5 5 3 3 8 4 6 4 8 29 24 20 17 13 10 7 6 5 5 5 4 4 4 4 5 5 3 5 7 7 5 4 5 6 6 6 6 7 7 9 11 8 10
4 3 5 1 3 6 5 6 6 5 4 5 4 10 26 29 25 21 16 11 8 6 5 5 5 6 5 5 4 4 5 4 5 7 9 9 7 6 6 6 6 7 6 6 6 7 8 6 6
4 4 1 1 4 7 8 6 3 11 2 6 10 14 14 22 19 18 14 11 8 6 4 4 5 6 6 5 5 3 4 4 6 8 10 9 7 6 6 6 7 7 8 8 8 7 7 8 8
5 1 1 5 5 5 6 6 6 2 3 9 14 15 10 10 13 16 16 13 9 6 4 3 4 6 6 6 6 5 4 6 8 11 11 7 7 8 8 7 7 8 8 8 9 9 8 8 8
3 2 4 4 7 8 9 5 7 5 4 13 14 11 9 10 15 17 14 10 8 5 3 2 4 6 6 6 6 5 6 7 8 10 12 10 10 9 9 9 8 9 9 9 9 9 8 9 9
4 3 3 7 6 7 8 3 4 4 5 11 11 9 8 10 16 15 15 12 9 6 3 1 3 5 6 6 4 5 6 7 5 6 9 9 10 9 9 9 9 8 9 9 9 10 9 8 8
6 5 6 8 5 4 3 5 3 3 6 10 9 7 7 11 19 21 18 16 12 7 4 1 2 4 5 4 2 3 4 4 6 6 7 7 8 8 9 7 9 8 9 9 8 8 8 8 9
5 6 4 4 4 3 2 3 4 6 10 9 8 7 7 7 19 18 18 16 12 9 6 3 1 3 5 4 1 0 2 2 4 5 5 5 6 6 7 8 10 8 9 9 9 10 10 11 12
6 5 4 1 4 2 3 3 4 5 7 8 8 7 7 7 11 16 19 17 12 9 7 4 2 3 4 2 1 2 1 1 3 6 5 4 4 5 6 7 7 8 9 10 10 10 11 15 14
5 7 5 5 4 2 2 3 4 6 7 9 8 7 8 8 10 19 19 15 13 10 8 5 3 3 3 2 2 4 1 1 1 5 4 4 4 4 3 5 6 7 8 10 10 10 8 14 14
7 7 8 1 2 3 5 4 7 7 5 8 8 8 9 10 13 19 19 17 14 13 10 7 6 5 4 3 3 4 4 2 3 2 3 4 3 3 3 4 4 6 8 10 10 8 8 13 14
5 7 4 4 1 1 4 5 6 8 7 9 11 9 10 6 5 14 21 20 19 16 12 9 8 6 5 4 5 4 4 4 3 1 2 3 3 3 3 3 4 5 6 7 9 10 6 7 13
2 7 6 7 4 2 4 6 5 6 6 6 7 6 6 10 9 8 19 24 20 17 14 11 9 8 6 5 5 5 4 5 5 4 3 2 2 2 3 4 5 5 6 7 8 8 8 6 5
4 3 6 12 5 4 2 4 4 2 6 7 8 8 8 8 6 7 14 21 24 19 13 12 11 9 8 6 7 8 9 8 9 8 6 4 3 3 4 5 5 5 5 6 6 6 6 5 7
6 7 6 4 5 5 2 4 6 2 2 1 6 8 6 3 6 7 16 25 23 16 15 14 12 10 9 8 8 10 10 10 9 9 8 7 7 6 5 5 5 5 5 5 4 4 4 5 4
6 7 8 5 3 3 1 4 5 1 1 2 3 3 6 5 5 4 11 16 17 15 15 15 14 12 11 10 10 11 12 12 12 12 12 10 10 9 8 7 7 6 5 4 4 3 2 2 2
6 6 3 4 3 5 4 2 7 2 1 3 6 5 5 5 5 4 5 9 13 16 16 16 15 14 12 12 12 13 14 15 15 14 14 13 14 13 11 10 9 8 7 6 6 5 5 3 3
4 4 5 6 4 4 3 5 4 1 4 5 4 3 2 3 2 4 7 9 11 14 16 16 16 16 14 14 15 15 16 17 18 18 17 17 16 15 14 13 12 11 10 9 8 8 7 7 6
3 1 3 6 3 4 2 3 5 2 3 3 3 3 4 4 4 6 8 11 13 14 17 18 17 18 17 16 16 18 19 20 20 19 19 20 19 18 17 16 16 14 13 12 11 11 10 10 9
2 4 3 3 4 3 4 3 4 5 6 4 3 4 3 4 5 3 4 7 10 13 15 16 18 20 20 18 19 20 21 22 22 22 23 23 23 22 21 20 19 18 17 16 15 14 12 12 12
2 1 3 4 3 4 3 5 5 7 7 8 6 6 6 4 1 0 3 6 8 9 11 15 17 18 19 18 20 21 22 23 25 27 27 26 24 24 24 23 22 21 20 18 17 17 16 16 16
2 2 3 4 3 1 3 4 2 7 8 7 6 5 3 4 4 2 4 8 11 13 12 10 14 17 20 20 21 21 21 23 25 28 29 27 28 26 27 26 26 26 25 22 22 22 20 20 20